Flag for Germany Weather past 2 weeks in Kassel, Hesse, Germany

Now
70 °F

Light rain. Scattered clouds.


Feels Like: 70 °F
Forecast: 54 / 71 °F
Wind: 10 mph from Southwest

Location: Kassel / Calden

Current Time: Aug 29, 2014 at 4:30:47 PM

Latest Report: Aug 29, 2014 at 3:50 PM


Visibility: N/A

Pressure: 30.01 "Hg

Humidity: 64%

Dew point: 57 °F

Location of KasselLocation

Historic Weather in Kassel — Graph

°F

Kassel temperature yesterday

Maximum temperature yesterday: 72 °F (at 3:20 PM)
Minimum temperature yesterday: 45 °F (at 5:50 AM)
Average temperature yesterday: 63 °F

Past Weeks' High & Low Weather Summary

 TemperatureHumidityPressure
High72 °F (Aug 28, 3:20 PM)100% (Aug 15, 7:20 AM)30.09 "Hg (Aug 15, 7:20 AM)
Low45 °F (Aug 25, 5:50 AM)40% (Aug 27, 5:50 PM)29.68 "Hg (Aug 18, 5:50 AM)
Average58 °F74%29.93 "Hg
* Reported Aug 14 3:20 PM — Aug 29 3:20 PM, Kassel, Weather by CustomWeather, © 2014

Note: Actual official high and low records may vary slightly from our data, if they occured in-between our weather recording intervals... More about our weather records

Advertising

Kassel weather history for previous 24 hours

 ConditionsComfort  
Time TempWeatherWind HumidityBarometerVisibility
3:20 PM
Aug 29
70 °FScattered clouds.9 mph60%30.01 "HgN/A
2:50 PM70 °FScattered clouds.9 mph60%30.01 "HgN/A
2:20 PM72 °FScattered clouds.7 mph61%30.01 "HgN/A
1:50 PM68 °FScattered clouds.9 mph64%30.01 "HgN/A
1:20 PM68 °FBroken clouds.9 mph64%30.01 "HgN/A
12:50 PM68 °FPartly sunny.8 mph69%30.01 "HgN/A
12:20 PM66 °FPartly sunny.10 mph73%30.01 "HgN/A
11:50 AM66 °FScattered clouds.10 mph73%30.01 "HgN/A
11:20 AM64 °FScattered clouds.10 mph78%30.01 "HgN/A
10:50 AM64 °FScattered clouds.7 mph78%30.01 "HgN/A
10:20 AM64 °FScattered clouds.7 mph78%30.01 "HgN/A
9:50 AM63 °FBroken clouds.7 mph88%30.01 "HgN/A
9:20 AM61 °FPartly sunny.5 mph88%30.01 "Hg4 mi
8:50 AM61 °FBroken clouds.7 mph88%29.98 "Hg4 mi
8:20 AM61 °FMostly cloudy.6 mph88%29.98 "HgN/A
7:50 AM61 °FOvercast.10 mph88%29.98 "HgN/A
7:20 AM61 °FLight rain. Partly cloudy.15 mph88%29.98 "Hg6 mi
6:50 AM61 °FPassing clouds.2 mph88%29.98 "HgN/A
6:20 AM63 °FPassing clouds.3 mph83%29.95 "HgN/A
5:50 AM64 °FPassing clouds.8 mph78%29.95 "HgN/A
9:50 PM
Aug 28
64 °FClear.6 mph78%30.01 "Hg10 mi
9:20 PM64 °FClear.5 mph73%30.01 "Hg10 mi
8:50 PM64 °FSunny.5 mph73%30.01 "Hg10 mi
8:20 PM66 °FSunny.3 mph73%29.98 "Hg10 mi
7:50 PM66 °FSunny.5 mph73%29.98 "Hg10 mi
7:20 PM68 °FSunny.6 mph69%29.98 "Hg10 mi
6:50 PM68 °FPassing clouds.5 mph64%30.01 "HgN/A
6:20 PM70 °FPassing clouds.8 mph60%30.01 "HgN/A
5:50 PM72 °FPassing clouds.10 mph57%30.01 "HgN/A
5:20 PM72 °FScattered clouds.9 mph57%30.01 "HgN/A
4:50 PM72 °FScattered clouds.12 mph57%30.01 "HgN/A
4:20 PM70 °FScattered clouds.9 mph60%30.01 "HgN/A
Weather by CustomWeather, © 2014

See weather overviewHow to use our weather pages